DW9313 Weather Reports


Display with metric or nautical units.
time (UTC)temp
F
wind
direction
speed
MPH
gust
MPH
rain 1hr
in
rain 24hr
in
rain mn
in
humidity
%
barometer
mb
20171020141356 55 163 15.0 28.0 0.00 0.17 0.00 82 999.6
20171020140857 55 172 14.0 25.0 0.00 0.17 0.00 81 999.8
20171020140356 55 155 18.0 29.0 0.00 0.17 0.00 81 999.9
20171020135857 55 182 15.0 25.0 0.00 0.17 0.00 81 1000.3
20171020135356 55 181 13.0 22.0 0.00 0.18 0.00 81 1000.2
20171020134857 55 171 17.0 28.0 0.00 0.18 0.00 81 1000.2
20171020134357 55 180 17.0 29.0 0.00 0.18 0.00 81 1000.2
20171020133857 55 183 13.0 28.0 0.00 0.18 0.00 81 1000.4
20171020133357 55 170 19.0 29.0 0.00 0.19 0.00 80 1000.4
20171020132857 55 166 17.0 28.0 0.00 0.19 0.00 80 1000.6
20171020132357 54 173 14.0 25.0 0.00 0.19 0.00 79 1000.9
20171020131857 54 198 15.0 28.0 0.00 0.19 0.00 79 1001.1
20171020131357 54 155 13.0 22.0 0.00 0.19 0.00 79 1001.4
20171020130856 54 189 14.0 25.0 0.00 0.19 0.00 78 1001.5
20171020130357 54 171 14.0 22.0 0.00 0.19 0.00 78 1001.7
20171020125856 53 188 13.0 21.0 0.00 0.22 0.00 78 1001.8
20171020125357 53 158 12.0 22.0 0.00 0.23 0.00 78 1002.0
20171020124857 53 181 14.0 21.0 0.00 0.23 0.00 77 1001.9
20171020124357 53 177 14.0 23.0 0.00 0.23 0.00 77 1002.0
20171020123857 53 170 12.0 21.0 0.00 0.23 0.00 77 1002.2
20171020123357 53 183 10.0 14.0 0.00 0.23 0.00 75 1002.5
20171020122857 53 187 12.0 18.0 0.00 0.23 0.00 75 1002.7
20171020122357 53 188 9.0 21.0 0.00 0.23 0.00 74 1002.9
20171020121858 52 205 12.0 20.0 0.00 0.24 0.00 73 1003.1
20171020121357 52 203 12.0 16.0 0.00 0.24 0.00 73 1003.1
20171020120857 52 181 11.0 16.0 0.00 0.24 0.00 72 1003.1
20171020120358 52 187 10.0 15.0 0.00 0.24 0.00 72 1003.1
20171020115858 52 191 10.0 14.0 0.00 0.24 0.00 72 1003.2
20171020115357 52 186 9.0 15.0 0.00 0.24 0.00 73 1003.3
20171020114857 52 191 11.0 16.0 0.00 0.24 0.00 72 1003.4
20171020114359 52 189 9.0 14.0 0.00 0.25 0.00 74 1003.5
20171020113859 52 187 9.0 14.0 0.00 0.26 0.00 74 1003.6
20171020113358 52 186 8.0 14.0 0.00 0.28 0.00 74 1003.9
20171020112858 52 165 9.0 14.0 0.00 0.30 0.00 75 1004.0
20171020112358 52 177 6.0 12.0 0.00 0.31 0.00 77 1004.2
20171020111857 51 172 7.0 12.0 0.00 0.31 0.00 78 1004.4
20171020111358 51 185 7.0 12.0 0.00 0.32 0.00 79 1004.5
20171020110858 51 158 6.0 8.0 0.00 0.34 0.00 80 1004.4
20171020110358 51 153 4.0 8.0 0.00 0.35 0.00 81 1004.5
20171020105858 51 140 6.0 8.0 0.00 0.37 0.00 80 1004.6
20171020105359 51 131 5.0 7.0 0.00 0.40 0.00 81 1004.7
20171020104859 50 155 3.0 7.0 0.00 0.42 0.00 82 1004.7
20171020104358 50 140 4.0 8.0 0.00 0.44 0.00 81 1004.7
20171020103858 50 126 4.0 8.0 0.00 0.44 0.00 82 1004.8
20171020103358 50 127 3.0 7.0 0.00 0.46 0.00 83 1004.7
20171020102859 49 96 2.0 6.0 0.00 0.47 0.00 83 1004.7
20171020102402 49 97 2.0 6.0 0.00 0.48 0.00 83 1004.8
20171020101859 49 126 0.0 6.0 0.00 0.49 0.00 82 1005.0
20171020101358 49 175 2.0 6.0 0.00 0.50 0.00 83 1005.1
20171020100858 48 176 2.0 5.0 0.00 0.50 0.00 82 1005.2
20171020100358 48 209 2.0 6.0 0.00 0.51 0.00 82 1005.2
20171020095859 48 188 2.0 6.0 0.00 0.52 0.00 84 1005.2
20171020095358 47 192 3.0 6.0 0.00 0.53 0.00 84 1005.2
20171020094858 47 209 1.0 2.0 0.00 0.54 0.00 85 1005.2
20171020094358 47 186 3.0 6.0 0.00 0.54 0.00 85 1005.3
20171020093858 46 139 2.0 6.0 0.00 0.55 0.00 85 1005.3
20171020093359 46 119 0.0 2.0 0.00 0.56 0.00 86 1005.3
20171020092858 46 96 1.0 5.0 0.00 0.56 0.00 86 1005.4
20171020092358 46 136 0.0 2.0 0.00 0.56 0.00 86 1005.3
20171020091859 45 111 0.0 2.0 0.00 0.56 0.00 87 1005.3
20171020091359 45 98 1.0 6.0 0.00 0.56 0.00 87 1005.3
20171020090859 45 95 1.0 2.0 0.00 0.57 0.00 87 1005.2
20171020090359 44 98 1.0 5.0 0.00 0.58 0.00 87 1005.2
20171020085900 44 97 3.0 6.0 0.00 0.58 0.00 87 1005.4
20171020085359 44 59 0.0 2.0 0.00 0.58 0.00 87 1005.5
20171020084859 44 59 0.0 0.0 0.00 0.58 0.00 87 1005.5
20171020084359 44 59 0.0 0.0 0.00 0.58 0.00 87 1005.7
20171020083859 43 59 0.0 2.0 0.00 0.58 0.00 87 1005.7
20171020083359 43 60 0.0 6.0 0.00 0.58 0.00 87 1005.6
20171020082900 43 100 1.0 5.0 0.00 0.58 0.00 87 1005.9
20171020082359 43 29 0.0 0.0 0.00 0.59 0.00 87 1005.8
20171020081859 43 25 0.0 0.0 0.00 0.60 0.00 87 1005.7
20171020081359 43 347 0.0 0.0 0.00 0.60 0.00 87 1005.8
20171020080859 43 320 0.0 0.0 0.00 0.60 0.00 87 1005.8
20171020080359 42 320 0.0 0.0 0.00 0.62 0.00 87 1005.8
20171020075900 42 105 0.0 0.0 0.00 0.63 0.00 87 1005.9
20171020075359 42 103 0.0 0.0 0.00 0.67 0.00 86 1005.8
20171020074859 42 103 0.0 0.0 0.00 0.67 0.00 86 1005.5
20171020074359 42 103 0.0 1.0 0.00 0.68 0.00 86 1005.6
20171020073859 42 149 0.0 1.0 0.00 0.69 0.00 85 1005.6
20171020073400 43 183 2.0 2.0 0.00 0.71 0.00 85 1005.8
20171020072900 43 105 1.0 5.0 0.00 0.71 0.00 85 1005.3
20171020072359 43 341 0.0 0.0 0.00 0.71 0.00 85 1005.5
20171020071900 43 336 1.0 2.0 0.00 0.71 0.00 85 1005.8
20171020071400 43 290 1.0 5.0 0.00 0.72 0.00 85 1005.9
20171020070900 43 264 0.0 6.0 0.00 0.72 0.00 85 1006.0
20171020070359 43 287 3.0 7.0 0.00 0.72 0.00 85 1006.0
20171020065859 43 284 2.0 7.0 0.00 0.72 0.00 85 1005.6
20171020065400 43 281 2.0 5.0 0.00 0.72 0.00 85 1005.4
20171020064900 43 279 1.0 5.0 0.00 0.72 0.00 85 1005.1
20171020064401 43 300 0.0 2.0 0.00 0.72 0.00 85 1005.1
20171020063900 42 311 0.0 2.0 0.00 0.72 0.00 85 1005.1
20171020063401 42 291 0.0 2.0 0.00 0.72 0.00 85 1005.1
20171020062900 42 278 1.0 2.0 0.00 0.72 0.00 85 1005.4
20171020062400 42 266 0.0 2.0 0.00 0.72 0.00 85 1005.0
20171020061902 42 229 0.0 0.0 0.00 0.72 0.00 84 1005.1
20171020061401 43 229 0.0 0.0 0.00 0.72 0.00 83 1005.3
20171020060900 43 229 0.0 6.0 0.00 0.72 0.00 83 1005.1
20171020060401 44 276 0.0 5.0 0.00 0.72 0.00 83 1004.9
20171020055901 44 269 2.0 6.0 0.00 0.72 0.00 83 1004.8
20171020055401 44 297 3.0 6.0 0.00 0.72 0.00 83 1004.4
20171020054900 44 257 2.0 6.0 0.00 0.72 0.00 83 1004.5
20171020054400 45 232 0.0 6.0 0.00 0.72 0.00 83 1004.3
20171020053901 45 322 5.0 6.0 0.00 0.72 0.00 84 1004.2
20171020053400 44 303 1.0 5.0 0.00 0.72 0.00 84 1004.5
20171020052901 45 232 3.0 6.0 0.00 0.72 0.00 82 1004.6
20171020052400 45 208 0.0 2.0 0.00 0.72 0.00 82 1004.4
20171020051901 46 223 2.0 6.0 0.00 0.72 0.00 82 1004.4
20171020051400 46 302 1.0 6.0 0.00 0.72 0.00 82 1004.2
20171020050900 46 296 4.0 8.0 0.00 0.72 0.00 82 1004.0
20171020050401 46 286 2.0 6.0 0.00 0.72 0.00 82 1004.0
20171020045901 46 297 3.0 8.0 0.00 0.72 0.00 82 1004.1
20171020045401 46 305 5.0 12.0 0.00 0.72 0.00 83 1004.1
20171020044901 46 304 3.0 6.0 0.00 0.72 0.00 83 1004.1
20171020044401 46 297 3.0 7.0 0.00 0.72 0.00 83 1004.1
20171020043901 46 299 3.0 6.0 0.00 0.72 0.00 83 1004.1
20171020043401 46 230 2.0 6.0 0.00 0.72 0.00 82 1004.2
20171020042901 46 268 2.0 6.0 0.00 0.72 0.00 82 1004.0
20171020042404 46 295 2.0 6.0 0.00 0.72 0.00 82 1003.7
20171020041901 47 317 3.0 6.0 0.00 0.72 0.00 81 1003.7
20171020041401 47 292 3.0 6.0 0.00 0.72 0.00 81 1003.8
20171020040902 47 272 2.0 7.0 0.00 0.72 0.00 81 1003.7
20171020040401 47 294 3.0 8.0 0.00 0.72 0.00 81 1003.5
20171020035902 47 328 5.0 12.0 0.00 0.72 0.00 81 1003.4
20171020035401 47 317 3.0 12.0 0.00 0.72 0.00 81 1003.5
20171020034902 47 309 4.0 16.0 0.00 0.72 0.00 81 1003.4
20171020034401 47 315 7.0 14.0 0.00 0.72 0.00 81 1003.2
20171020033902 47 316 8.0 16.0 0.00 0.72 0.00 81 1003.2
20171020033401 47 320 7.0 14.0 0.00 0.72 0.00 81 1003.1
20171020032902 47 321 6.0 12.0 0.00 0.72 0.00 81 1003.2
20171020032402 47 312 5.0 9.0 0.00 0.72 0.00 80 1003.2
20171020031901 47 314 5.0 8.0 0.00 0.72 0.00 80 1003.2
20171020031402 47 327 1.0 6.0 0.00 0.72 0.00 80 1003.2
20171020030902 47 338 3.0 6.0 0.00 0.72 0.00 80 1003.1
20171020030401 47 98 2.0 6.0 0.00 0.72 0.00 80 1003.0
20171020025901 47 354 2.0 8.0 0.00 0.72 0.00 80 1002.9
20171020025402 48 102 1.0 5.0 0.00 0.72 0.00 80 1002.8
20171020024902 47 325 1.0 6.0 0.00 0.72 0.00 80 1002.9
20171020024402 48 249 2.0 6.0 0.00 0.72 0.00 80 1002.9
20171020023903 48 278 1.0 7.0 0.00 0.72 0.00 80 1002.8
20171020023402 48 277 3.0 7.0 0.00 0.72 0.00 80 1002.6
20171020022902 48 289 5.0 14.0 0.00 0.72 0.00 80 1002.5
20171020022402 48 296 6.0 13.0 0.00 0.72 0.00 80 1002.4
20171020021903 48 303 8.0 15.0 0.00 0.72 0.00 81 1002.2
20171020021402 48 291 6.0 15.0 0.00 0.72 0.00 81 1002.1
20171020020902 48 303 7.0 15.0 0.00 0.72 0.00 81 1001.9
20171020020402 48 296 8.0 14.0 0.00 0.72 0.00 82 1001.7
20171020015903 48 304 9.0 16.0 0.00 0.72 0.00 82 1001.6
20171020015403 48 304 9.0 18.0 0.00 0.72 0.00 82 1001.6
20171020014903 48 295 7.0 14.0 0.00 0.72 0.00 82 1001.4
20171020014403 48 294 7.0 14.0 0.00 0.72 0.00 81 1001.3
20171020013902 48 308 9.0 16.0 0.00 0.72 0.00 81 1001.2
20171020013403 48 301 7.0 15.0 0.00 0.72 0.00 81 1001.1
20171020012902 48 306 7.0 16.0 0.00 0.72 0.00 81 1000.9
20171020012402 48 298 7.0 16.0 0.00 0.72 0.00 82 1000.9
20171020011903 48 292 6.0 16.0 0.00 0.72 0.00 82 1000.8
20171020011403 49 294 8.0 16.0 0.00 0.72 0.00 82 1000.6
20171020010903 49 297 7.0 20.0 0.00 0.72 0.00 82 1000.4
20171020010403 49 304 9.0 18.0 0.00 0.72 0.00 82 1000.2
20171020005903 49 298 10.0 20.0 0.00 0.72 0.00 81 1000.1
20171020005403 49 304 9.0 18.0 0.00 0.72 0.00 81 1000.1
20171020004903 49 293 6.0 14.0 0.00 0.72 0.00 80 999.8
20171020004403 49 295 6.0 14.0 0.00 0.72 0.00 80 999.7
20171020003903 49 322 7.0 15.0 0.00 0.72 0.00 80 999.5
20171020003404 50 323 10.0 16.0 0.00 0.72 0.00 79 999.5
20171020002904 50 315 10.0 20.0 0.00 0.72 0.00 80 999.6
20171020002403 50 305 10.0 20.0 0.00 0.72 0.00 80 999.4
20171020001904 50 321 12.0 20.0 0.00 0.72 0.00 80 999.1
20171020001404 50 307 12.0 22.0 0.00 0.72 0.00 80 999.0
20171020000903 50 319 14.0 23.0 0.00 0.72 0.00 80 999.0
20171020000403 50 319 8.0 20.0 0.00 0.72 0.00 81 998.9
20171019235904 50 294 9.0 18.0 0.00 0.72 0.00 81 998.8
20171019235404 50 324 12.0 21.0 0.00 0.72 0.00 81 998.6
20171019234904 51 308 10.0 16.0 0.00 0.72 0.00 81 998.4
20171019234403 51 303 6.0 22.0 0.00 0.72 0.00 81 998.3
20171019233904 51 305 9.0 22.0 0.00 0.72 0.00 81 998.2
20171019233404 51 309 13.0 21.0 0.00 0.72 0.00 81 997.8
20171019232904 51 318 12.0 22.0 0.00 0.72 0.00 81 997.6
20171019232404 51 321 13.0 25.0 0.00 0.72 0.00 81 997.3
20171019231904 51 329 16.0 28.0 0.00 0.72 0.00 81 997.2
20171019231404 51 328 14.0 28.0 0.00 0.72 0.00 81 997.0
20171019230938 51 337 17.0 28.0 0.00 0.72 0.00 81 997.0
20171019230403 51 334 13.0 25.0 0.00 0.72 0.00 82 997.0
20171019225904 51 332 15.0 30.0 0.00 0.72 0.65 82 996.9
20171019225404 51 330 20.0 33.0 0.00 0.72 0.65 82 996.8
20171019224904 51 327 18.0 30.0 0.00 0.72 0.65 82 996.6
20171019224404 51 332 15.0 35.0 0.00 0.72 0.65 82 996.4
20171019223904 52 322 17.0 30.0 0.00 0.72 0.65 82 996.2
20171019223404 52 330 16.0 33.0 0.00 0.72 0.65 82 996.2
20171019222904 52 329 18.0 28.0 0.00 0.72 0.65 82 996.4
20171019222407 52 322 16.0 26.0 0.00 0.72 0.65 83 996.2
20171019221904 52 327 18.0 30.0 0.00 0.72 0.65 83 996.0
20171019221404 52 329 17.0 32.0 0.00 0.72 0.65 83 995.9
20171019220904 52 333 20.0 33.0 0.00 0.72 0.65 83 995.7
20171019220405 52 327 18.0 33.0 0.00 0.72 0.65 83 995.5
20171019215904 52 324 18.0 41.0 0.00 0.72 0.65 83 995.4
20171019215404 52 324 20.0 30.0 0.00 0.72 0.65 84 995.3
20171019214905 52 324 15.0 30.0 0.00 0.72 0.65 84 995.2
20171019214405 53 337 17.0 30.0 0.00 0.72 0.65 84 995.2
20171019213905 53 329 16.0 32.0 0.00 0.72 0.65 84 995.0
20171019213405 53 328 14.0 30.0 0.00 0.72 0.65 85 994.9
20171019212905 53 325 14.0 29.0 0.00 0.72 0.65 85 994.8
20171019212405 53 316 13.0 22.0 0.00 0.72 0.65 85 994.6
20171019211904 53 332 16.0 25.0 0.00 0.72 0.65 85 994.3
20171019211405 53 322 16.0 25.0 0.00 0.72 0.65 85 994.1
20171019210905 53 327 16.0 28.0 0.00 0.72 0.65 85 993.9
20171019210404 53 336 18.0 28.0 0.00 0.72 0.65 85 993.8
20171019205905 53 319 17.0 30.0 0.00 0.72 0.65 85 993.7
20171019205405 53 333 18.0 30.0 0.00 0.72 0.65 85 993.7
20171019204905 53 328 14.0 29.0 0.00 0.72 0.65 85 993.7
20171019204405 54 330 17.0 30.0 0.00 0.72 0.65 85 993.5
20171019203905 54 320 17.0 28.0 0.00 0.72 0.65 86 993.3
20171019203405 54 327 14.0 30.0 0.00 0.72 0.65 87 993.1
20171019202905 54 322 17.0 29.0 0.00 0.72 0.65 87 993.0
20171019202405 54 323 16.0 30.0 0.00 0.72 0.65 88 993.1
20171019201905 54 324 17.0 33.0 0.00 0.72 0.65 88 993.0
20171019201405 54 322 17.0 29.0 0.00 0.72 0.65 88 992.9
20171019200905 54 330 16.0 26.0 0.00 0.72 0.65 88 992.9
20171019200406 54 335 19.0 30.0 0.00 0.72 0.65 88 992.5
20171019195905 54 326 16.0 29.0 0.00 0.72 0.65 89 992.5
20171019195405 54 324 14.0 28.0 0.00 0.72 0.65 89 992.5
20171019194906 54 331 15.0 28.0 0.00 0.72 0.65 90 992.4
20171019194405 54 326 14.0 26.0 0.00 0.72 0.65 90 992.1
20171019193905 54 330 14.0 25.0 0.00 0.72 0.65 90 992.2
20171019193405 54 324 14.0 23.0 0.00 0.72 0.65 91 991.9
20171019192906 53 311 12.0 28.0 0.00 0.72 0.65 91 991.8
20171019192406 53 321 14.0 25.0 0.00 0.72 0.65 91 991.6
20171019191906 53 312 15.0 29.0 0.00 0.72 0.65 91 991.7
20171019191405 53 314 14.0 30.0 0.00 0.72 0.65 91 991.5
20171019190905 53 320 13.0 25.0 0.00 0.72 0.65 91 991.3
20171019190406 53 333 15.0 29.0 0.00 0.72 0.65 91 991.2
20171019185906 53 330 19.0 33.0 0.00 0.72 0.65 91 991.1
20171019185406 53 327 13.0 22.0 0.01 0.72 0.65 91 991.1
20171019184905 53 327 12.0 22.0 0.01 0.72 0.65 91 991.1
20171019184406 53 327 13.0 22.0 0.03 0.72 0.65 91 991.0
20171019183906 53 327 13.0 21.0 0.06 0.72 0.65 91 990.9
20171019183406 53 331 13.0 22.0 0.06 0.72 0.65 91 990.8
20171019182906 53 318 13.0 28.0 0.06 0.75 0.65 91 990.7
20171019182407 53 332 14.0 25.0 0.06 0.76 0.65 91 990.5
20171019181906 53 324 15.0 25.0 0.06 0.76 0.65 91 990.3
20171019181406 54 329 13.0 22.0 0.06 0.76 0.65 91 990.2
20171019180907 54 319 13.0 22.0 0.06 0.76 0.65 91 990.2
20171019180407 54 307 12.0 25.0 0.06 0.76 0.65 91 990.0
20171019175906 54 309 12.0 22.0 0.07 0.76 0.65 91 989.8
20171019175407 54 322 11.0 22.0 0.06 0.75 0.64 90 989.8
20171019174907 55 323 12.0 25.0 0.06 0.75 0.64 90 989.8
20171019174406 56 313 8.0 16.0 0.04 0.73 0.62 90 989.8
20171019173908 57 302 2.0 8.0 0.01 0.70 0.59 91 989.6
20171019173407 57 216 0.0 0.0 0.02 0.70 0.59 91 989.5
20171019172907 57 216 0.0 0.0 0.02 0.70 0.59 91 989.5
20171019172408 57 188 1.0 2.0 0.02 0.70 0.59 91 989.4
20171019171907 57 146 3.0 6.0 0.02 0.70 0.59 90 989.4
20171019171407 57 150 3.0 6.0 0.02 0.70 0.59 90 989.4
20171019170908 57 146 6.0 8.0 0.02 0.70 0.59 90 989.4
20171019170407 57 162 5.0 8.0 0.02 0.70 0.59 90 989.4
20171019165907 57 175 5.0 8.0 0.02 0.69 0.58 91 989.3
20171019165407 57 138 5.0 8.0 0.02 0.69 0.58 90 989.3
20171019164908 57 144 5.0 12.0 0.02 0.69 0.58 90 989.3
20171019164407 57 160 5.0 13.0 0.02 0.69 0.58 90 989.2
20171019163907 57 138 5.0 9.0 0.03 0.69 0.58 90 989.2
20171019163407 57 172 7.0 13.0 0.02 0.68 0.57 90 989.1
20171019162908 57 142 7.0 12.0 0.02 0.68 0.57 90 989.1
20171019162415 57 148 7.0 12.0 0.02 0.68 0.57 90 989.1
20171019161907 57 140 8.0 18.0 0.02 0.68 0.57 90 989.0
20171019161407 57 152 10.0 18.0 0.02 0.68 0.57 90 989.0
20171019160907 57 164 11.0 20.0 0.03 0.68 0.57 90 989.0
20171019160408 57 158 11.0 20.0 0.04 0.68 0.57 90 989.0
20171019155908 57 146 10.0 18.0 0.04 0.67 0.56 90 989.0
20171019155407 57 154 12.0 16.0 0.05 0.67 0.56 90 989.0
20171019154907 57 153 10.0 20.0 0.05 0.67 0.56 90 989.0
20171019154408 57 153 10.0 20.0 0.05 0.67 0.56 90 989.1
20171019153907 57 165 10.0 20.0 0.05 0.66 0.55 90 989.2
20171019153408 57 159 11.0 22.0 0.05 0.66 0.55 90 989.1
20171019152908 57 152 13.0 22.0 0.06 0.66 0.55 90 989.2
20171019152409 57 163 11.0 23.0 0.06 0.66 0.55 90 989.1
20171019151909 57 149 15.0 20.0 0.06 0.66 0.55 90 989.2
20171019151408 57 156 17.0 23.0 0.07 0.66 0.55 90 989.1
20171019150908 57 156 13.0 22.0 0.06 0.65 0.54 90 989.2
20171019150408 57 147 16.0 25.0 0.05 0.64 0.53 90 989.2
20171019145908 57 156 14.0 25.0 0.04 0.63 0.52 90 989.3
20171019145409 57 161 11.0 23.0 0.04 0.62 0.51 90 989.4
20171019144909 56 155 13.0 22.0 0.04 0.62 0.51 90 989.5
20171019144409 56 147 14.0 25.0 0.04 0.62 0.51 90 989.5
20171019143908 56 141 16.0 29.0 0.03 0.61 0.50 90 989.6
20171019143409 56 134 15.0 25.0 0.04 0.61 0.50 90 989.7
20171019142909 56 162 16.0 28.0 0.03 0.60 0.49 90 989.7
20171019142408 57 171 17.0 28.0 0.03 0.60 0.49 90 989.8
20171019141908 57 162 16.0 28.0 0.03 0.60 0.49 90 989.9